Weather in Ivanytsia

Ukraine / Chernihiv Region     50°47′08″N   32°38′12″E
temp.,
°C
wind,
m/s
gust,
m/s
humid.,
%
clouds,
%
prec.,
mm/h
press.,
hPa
HPBL,
m
14 april, wed
wed1400:00+8sse378844 0.0 1019151
03:00+8sse368971 0.0 1018121
06:00+8se3789100 0.0 1018188
09:00+9sse3786100 0.0 1018378
12:00+12sse3466100 0.0 1017692
15:00+15sse2453100 0.1 10151648
18:00+13se2470100 0.7 1015211
21:00+10ese348693 1.1 101589
15 april, thu
thu1500:00+9se1190100 1.1 101437
03:00+9e2290100 1.9 101355
06:00+9se2395100 1.2 1012113
09:00+9s4787100 1.5 1013476
12:00+12sse5664100 0.1 10121053
15:00+11se146753 0.2 1012661
18:00+11sse3477100 0.2 1011279
21:00+8sse488893 0.5 1012411
16 april, fri
fri1600:00+7ese379226 0.0 1011261
03:00+7e388981 0.1 1011287
06:00+6ese489767 0.1 1011254
09:00+8se578149 0.1 1012729
12:00+9se6777100 0.3 1013944
15:00+8se3884100 1.9 1014707
18:00+9ese4684100 0.2 1014558
21:00+7se379257 0.3 1016321
17 april, sat
sat1700:00+7se3693100 0.0 1017327
03:00+7se229475 0.1 101877
06:00+6s22945 0.1 101954
09:00+8sw2281100 0.1 1020335
12:00+11nw2161100 0.0 10191101
15:00+12nw3357100 0.1 10191467
18:00+10nnw4578100 0.1 1019341
21:00+9w3786100 0.3 1018479
18 april, sun
sun1800:00+9w61089100 0.7 1018625
03:00+7n4694100 0.8 1017365
06:00+7n3696100 0.1 1017409
09:00+8ese3592100 0.3 1018452
12:00+8ese6890100 0.2 1021647
15:00+8sse4683100 0.2 1022675
18:00+10e237110 0.0 1023621
21:00+7nne22855 0.0 102325